Regional Weather Roundup
Issued by NWS

Home | Current Version | Previous Version | Graphics & Text | Print | Product List | Glossary On
Versions: 1 2 3 4 5 6 7 8 9 10 11 12 13 14 15 16 17 18 19 20 21 22 23 24 25 26 27 28 29 30 31 32 33 34 35 36 37 38 39 40 41 42 43 44 45 46 47 48 49 50
398
ASUS45 KTFX 200810
RWRMT
MONTANA REGIONAL WEATHER ROUNDUP
NATIONAL WEATHER SERVICE GREAT FALLS MT
200 AM MDT FRI OCT 20 2017

NOTE: "FAIR" INDICATES FEW OR NO CLOUDS BELOW 12000 FEET WITH NO
SIGNIFICANT WEATHER AND/OR OBSTRUCTIONS TO VISIBILITY.

MTZ001>007-043-200900-
WEST OF THE DIVIDE

CITY           SKY/WX    TMP DP  RH WIND       PRES   REMARKS
KALISPELL      MOCLDY    44  36  73 SW7       29.38F
MISSOULA       PTCLDY    45  26  47 SE8       29.40F
BUTTE          PTCLDY    56  17  21 S13       29.54F
MULLAN PASS    CLOUDY    37  32  82 VRB6      29.47F
ANACONDA         N/A     46  18  31 SW3       29.51F
DEER LODGE       N/A     55  19  24 SW7       29.49F
EUREKA           N/A     46  36  66 MISG      29.41F
HAMILTON         N/A     52  19  28 S5        29.41F
LIBBY            N/A     46  36  66 CALM      29.41F
$$

MTZ008-052>055-200900-
SOUTHWEST MONTANA

CITY           SKY/WX    TMP DP  RH WIND       PRES   REMARKS
BOZEMAN        PTCLDY    48  18  30 CALM      29.53F
DILLON         CLEAR     59  15  18 S14G25    29.53F
W YELLOWSTONE  PTCLDY    27  18  69 S3        29.74S
ENNIS          CLEAR     57  12  17 S25G33    29.63S
THREE FORKS      N/A     61  17  18 S17       29.55F
$$

MTZ009-010-012-014-046-048-049-054-200900-
EAST SLOPES AND CENTRAL MONTANA

CITY           SKY/WX    TMP DP  RH WIND       PRES   REMARKS
CUT BANK       CLOUDY    42  22  44 E7        29.40F
GREAT FALLS    PTCLDY    54  17  23 SW10      29.43F
MALMSTROM AFB  PTCLDY    52  19  27 SW12      29.42F
HELENA         PTCLDY    65  18  16 S13       29.45F
BOWMANS CRNR     N/A     53  16  23 S5        29.42F
CHOTEAU          N/A     48  21  34 SE6       29.43F
FAIRFIELD        N/A     49  20  30 S12       29.41F
POWER            N/A     50  18  27 S14       29.42F
RAYNESFORD       N/A     64  14  14 S17       29.46F
ULM              N/A     53  20  27 S7        29.42F
$$

MTZ011-013-016-021-045-047-050-051-200900-
NORTH CENTRAL MONTANA

CITY           SKY/WX    TMP DP  RH WIND       PRES   REMARKS
HAVRE          CLOUDY    42  31  64 CALM      29.40F
LEWISTOWN      CLOUDY    61  13  15 SW6       29.50F
N BAR RANCH      N/A     64   9  11 SW26G33   29.53F
CHINOOK          N/A     41  32  70 CALM      29.39F
DENTON           N/A     61  15  16 S20       29.43S
GEYSER           N/A     58  14  18 CALM      29.46F
GRASS RANGE      N/A     58  14  18 SW14      29.45F
JUDITH GAP       N/A     54  15  21 SE10      29.53F
WINIFRED         N/A     65  13  13 SW17      29.44F
$$

MTZ017>020-022>027-061-062-200900-
NORTHEAST MONTANA

CITY           SKY/WX    TMP DP  RH WIND       PRES   REMARKS
GLASGOW        CLOUDY    52  30  43 E16       29.42F
JORDAN           N/A     45  29  53 CALM      29.46F
SIDNEY         CLEAR     41  31  67 CALM      29.48F
WOLF POINT     MOCLDY    45  28  51 E5        29.46F
MALTA          CLEAR     46  30  53 CALM      29.40F
PLENTYWOOD       N/A     57  28  33 E7        29.48F
POPLAR           N/A     45  28  53 N5        29.47F
$$

MTZ028>42-056>058-200900-
SOUTHCENTRAL AND SOUTHEAST MONTANA

CITY           SKY/WX    TMP DP  RH WIND       PRES   REMARKS
BAKER          CLEAR     44  29  55 SE5       29.53F
BILLINGS       CLEAR     53  24  32 S7        29.51F
LIVINGSTON     PTCLDY    60  18  19 SW22G28   29.54F
MILES CITY     CLEAR     47  32  56 SE10      29.49F
BIG TIMBER     CLEAR     55  14  19 W9        29.57F
FORSYTH          N/A     46  28  49 CALM      29.48F
HARLOWTON        N/A     46  17  31 MISG      29.52F
$$

REGIONAL REPORTS...DAKOTAS

CITY           SKY/WX    TMP DP  RH WIND       PRES   REMARKS
WILLISTON      PTCLDY    42  33  70 N3        29.50F
MINOT            N/A     50  36  58 SE6       29.54F
DICKINSON      CLEAR     46  32  58 S13       29.51F
BEACH            N/A     43  28  56 S7        29.54F
CROSBY           N/A     43  32  65 S8        29.51F
TIOGA            N/A     45  30  57 NE6       29.54F
WATFORD CITY     N/A     41  30  65 CALM      29.50F
BISMARCK       CLEAR     43  37  79 NE10      29.58F
GRAND FORKS      N/A     48  41  76 S7        29.66F
FARGO            N/A     57  48  72 S14       29.68F
BUFFALO SD       N/A     51  25  36 SE7       29.50F
RAPID CITY     PTCLDY    53  27  36 S7        29.65F
$$

REGIONAL REPORTS...WYOMING/IDAHO/WASHINGTON

CITY           SKY/WX    TMP DP  RH WIND       PRES   REMARKS
GILLETTE       CLEAR     62  15  16 S26G35    29.60F
SHERIDAN       PTCLDY    42  28  57 CALM      29.58F
BUFFALO WY     PTCLDY    60   7  12 S7        29.64F
CODY           PTCLDY    45  17  32 S8        29.65F
YELLOWSTONE LA   N/A     26  21  81 NW3       29.82F
IDAHO FALLS    CLEAR     54  24  31 S12       29.66F
SALMON         PTCLDY    37  23  56 CALM      29.51F
BOISE          CLOUDY    62  17  17 SE12      29.48F
SPOKANE        LGT RAIN  46  45  96 S12       29.50S
$$

REGIONAL REPORTS...ALBERTA

CITY           SKY/WX    TMP DP  RH WIND       PRES   REMARKS
EDMONTON       CLEAR     32  28  86 CALM      29.26F
CALGARY        PTCLDY    43  32  65 SW6       29.32F
LETHBRIDGE     PTCLDY    37  30  75 S13       29.37F WCI  29
MEDICINE HAT   CLOUDY    48  37  66 N6        29.37F
$$

REGIONAL REPORTS...SASKATCHEWAN

CITY           SKY/WX    TMP DP  RH WIND       PRES   REMARKS
SWIFT CURRENT  MOCLDY    48  25  40 SE9       29.38F
REGINA         PTCLDY    46  27  46 E10       29.45F
SASKATOON      MOCLDY    50  36  57 E7        29.40F
$$




USA.gov is the U.S. government's official web portal to all federal, state and local government web resources and services.